THOR ABLESTAR DEB, 128

Orbit data source: Space-Track

THOR ABLESTAR DEB, 128 is space debris in LEO originally from a launch on Thu, 29 Jun 1961 UTC launched from the Air Force Eastern Test Range (AFETR). Debris objects in space refer to the collection of defunct objects orbiting the Earth. Examples of debris include non-operational satellites, rocket bodies, and fragments generated from explosions, collisions, or faulty payload assembly.

Loading next visibility...
Identifier
128, 1961-015N
Orbit
LEO
Country
Flag of USUS
Related business
Manufacturer
Unknown
Mission
Spacecraft
Bus & Motor
Unknown
Mass
Unknown
Launch date (UTC)
1961-06-29 (64 years ago)
Launch vehicle
Unknown
Launch site
Air Force Eastern Test Range (AFETR)
Object type
Payload
Rocket body
Debris
Shape & HBR
Unknown
Radar Cross Section
Medium (>0.1 m² and <1 m²)

Expand to show TLE details & history
Last TLE update: 14 hours ago

TLE from 14 hours ago
0 THOR ABLESTAR DEB
1 00128U 61015N   25258.38772890  .00000076  00000-0  98866-4 0  9994
2 00128  66.6748 147.0962 0090172 151.2293 209.3808 14.01929385276558
Epoch: 2025-09-15T09:18Z
TLE epoch observation values (Epoch: 2025-09-15T09:18:19.776Z)
Latitude
-0.00001°
Longitude
12.92069°
Altitude
946.433 km
Speed
7.35 km/s
True Right ascension
09h 48m 23s
True Declination
0° 00' 00"
Sunlit
Object was in daylight at epoch
Visualization orbit readout
Latitude
Unknown
Longitude
Unknown
Altitude
Unknown
Speed
Unknown
Apparent Right ascension
Unknown
Apparent Declination
Unknown
Sunlit
N/A
Visualization observer readout
Local Sidereal Time
15:46:25
Azimuth
Unknown
Elevation
Unknown
Doppler factor
Unknown
Orbital elements
Apogee altitude
951.019 km
Perigee altitude
820.023 km
Semi-major axis
7,263.658 km
Eccentricity
0.00902
Inclination
66.6748°
RAAN
147.0962°
Arg. of periapsis
151.2293°
True anomaly
208.87879°
Mean anomaly
209.3808°
Eccentric anomaly
209.12931°
Mean motion
3.50599 °/min
Orbital period
102.68 mins
BSTAR
0.000098866
Loading maneuver chart data...
Computing Atmospheric mass density...

Documentation

Showing up to 5 results
|